Location: Betpouey
(42.8833°N, 0.0333°E)
Time: 21:36:49
(UTC+00:00)

Cosmos 1151 Rocket - Pass Details

Date: 01 December 2020
Orbit: 593 x 615 km, 82.5° (Epoch: 18 January)

Event Time Altitude Azimuth Distance (km) Brightness Sun altitude
Rises 17:04:50 0° 175° (S) 2,831 6.7 -7.1°
Reaches altitude 10° 17:07:04 10° 171° (S) 1,931 5.8 -7.5°
Maximum altitude 17:11:14 55° 94° (E) 723 3.1 -8.2°
Drops below altitude 10° 17:15:24 10° 17° (NNE) 1,938 5.2 -8.9°
Sets 17:17:39 0° 13° (NNE) 2,843 6.1 -9.3°
